Location: Anderson Ranch (historical)
(38.9043°N, 122.6139°W)
Time: 14:06:59
(UTC+00:00)

Daily predictions for brighter satellites

Satellite Brightness Start Highest point End
(mag) Time Altitude Azimuth Time Altitude Azimuth Time Altitude Azimuth
STARLINK-1062 4.0 12:04:08 40° S 12:05:16 55° SE 12:09:19 10° ENE
NOSS 3-2 (A) 3.9 12:04:17 33° W 12:06:09 43° NW 12:12:14 10° NNE
Cosmos 1975 2.9 12:04:00 10° NNW 12:07:54 50° W 12:07:55 50° W
PAYLOAD A 4.4 12:02:49 10° NNE 12:08:13 68° ESE 12:13:26 10° S
STARLINK-1053 3.9 12:08:56 39° SSW 12:10:15 61° SE 12:14:21 10° NE
STARLINK-1061 3.8 12:13:42 37° SSW 12:15:11 68° SE 12:19:19 10° NE
Cosmos 1980 4.4 12:11:22 10° NW 12:16:13 30° WSW 12:16:14 30° WSW
CZ-2C R/B 2.6 12:11:54 10° NNE 12:16:27 65° E 12:20:59 10° S
Cosmos 1674 Rocket 4.3 12:12:15 10° S 12:16:33 53° E 12:20:51 10° NNE
CENTAUR R/B 2.4 12:14:42 29° SW 12:17:49 69° NW 12:24:37 10° NNE
Cosmos 2180 Rocket 4.5 12:14:02 10° NNW 12:20:07 59° W 12:26:15 10° S
STARLINK-1067 3.6 12:18:29 34° SW 12:20:10 75° SE 12:24:19 10° NE
deb Chang Zheng 4 4.2 12:17:14 10° N 12:21:13 37° WNW 12:22:17 32° WSW
Cosmos 2221 Rocket 3.8 12:23:08 29° SW 12:25:00 47° W 12:29:18 10° N
STARLINK-1058 3.6 12:23:16 32° SW 12:25:08 83° SE 12:29:18 10° NE
Cosmos 494 Rocket 3.9 12:21:48 10° NNW 12:27:05 79° WSW 12:32:20 10° SSE
Meteor 1-4 Rocket 2.6 12:24:39 15° S 12:27:42 90° E 12:31:30 10° N
SeaSat 1 3.0 12:24:12 10° SE 12:29:03 62° ENE 12:33:56 10° NNW
STARLINK-52 3.6 12:29:31 34° SW 12:29:31 34° SW 12:32:14 10° SSE
STARLINK-1043 3.5 12:28:01 29° SW 12:30:05 90° WNW 12:34:14 10° NE
STARLINK-1065 3.5 12:29:05 28° SW 12:31:11 88° NW 12:35:21 10° NE
CZ-2C R/B 4.4 12:28:25 10° NNW 12:31:15 19° WNW 12:31:19 19° WNW
Cosmos 1269 Rocket 4.1 12:27:23 10° NNW 12:32:44 81° ENE 12:38:02 10° SSE
SL-16 R/B 2.1 12:27:31 10° NNW 12:33:09 68° WSW 12:38:45 10° S
Cosmos 2082 4.3 12:30:18 23° WSW 12:33:12 39° WNW 12:38:33 10° N
NOSS 3-2 (C) 3.9 12:32:47 22° WSW 12:36:07 42° NW 12:42:14 10° NNE
SJ-6F 4.5 12:32:10 10° NNE 12:36:19 84° E 12:40:29 10° S
Sich 1 Rocket 4.5 12:33:27 10° NNW 12:37:09 27° W 12:38:55 21° SW
Meteor 1-31 Rocket 3.5 12:35:47 10° NNE 12:39:39 55° E 12:43:29 10° S
STARLINK-1063 3.6 12:37:35 23° WSW 12:40:02 75° NW 12:44:11 10° NE
Okean 2 Rocket 3.4 12:35:57 10° NNW 12:40:14 44° W 12:44:30 10° SSW
Cosmos 2151 Rocket 3.5 12:36:45 10° NNW 12:41:07 66° W 12:45:27 10° S
Cosmos 389 Rocket 3.8 12:41:42 22° W 12:42:15 22° WNW 12:45:07 10° NNW
Cosmos 1300 Rocket 3.6 12:38:13 10° NNW 12:42:24 50° W 12:46:34 10° SSW
PSLV R/B 4.3 12:38:17 10° SSE 12:42:28 70° ENE 12:46:40 10° N
STARLINK-1064 3.7 12:42:23 21° WSW 12:45:02 68° NW 12:49:10 10° NE
CZ-4B R/B 4.2 12:42:05 10° NNE 12:46:00 65° ESE 12:49:42 10° S
Okean 3 4.5 12:45:01 20° WSW 12:46:46 26° WNW 12:50:17 10° NNW
Cosmos 2195 Rocket 4.5 12:43:46 10° S 12:49:55 89° W 12:56:10 10° N
STARLINK-1041 3.8 12:47:11 19° WSW 12:50:02 62° NW 12:54:09 10° NE
IDEFIX/ARIANE 42P 3.9 12:48:57 10° NNW 12:52:43 21° WNW 12:55:25 14° WSW
Cosmos 1689 Rocket 2.7 12:51:56 10° SSW 12:54:42 33° W 12:57:28 10° NNW
STARLINK-1038 3.9 12:51:57 17° WSW 12:55:00 56° NW 12:59:06 10° NE
Cosmos 1378 Rocket 3.5 12:52:30 10° SSW 12:56:48 71° W 13:01:10 10° N
Cosmos 2237 Rocket 3.7 12:55:00 10° WNW 12:57:42 14° W 12:59:06 13° WSW
BREEZE-M DEB (TANK) 3.4 12:55:55 12° WNW 12:58:00 19° NNW 12:59:44 10° NNE
CZ-4B R/B 3.0 12:56:53 15° WSW 12:58:01 17° W 13:00:24 10° NW
STARLINK-1046 4.0 12:56:44 15° WSW 13:00:00 51° NW 13:04:04 10° NE
STARLINK-1039 4.1 13:01:30 13° WSW 13:04:58 47° NW 13:08:59 10° NE
CZ-4B R/B 3.1 13:04:11 10° NNE 13:08:32 88° W 13:13:00 10° SSW
STARLINK-1045 4.2 13:06:16 12° WSW 13:09:57 43° NW 13:13:56 10° NE
Cosmos 2263 Rocket 2.2 13:05:32 10° SSW 13:11:12 87° WNW 13:16:55 10° NNE
ATLAS 3B R/B 2.9 13:06:19 10° SW 13:12:49 53° NW 13:19:19 10° NNE
ATLAS 5 CENTAUR R/B 2.8 13:08:39 10° NNW 13:14:34 74° NE 13:21:21 10° SE
STARLINK-1050 4.4 13:11:07 10° WSW 13:15:01 39° NNW 13:18:56 10° NE
Meteor PRIRODA 3.7 13:11:49 10° NNE 13:15:29 85° ESE 13:19:09 10° SSW
Cosmos 2297 Rocket 4.3 13:16:22 10° NW 13:16:45 10° NW 13:17:08 10° NW
ADEOS 4.5 13:12:27 10° N 13:16:55 29° WNW 13:21:23 10° SW
Cosmos 1092 Rocket 4.4 13:12:42 10° SSW 13:18:42 45° WNW 13:24:44 10° N
STARLINK-1055 4.5 13:16:11 10° W 13:20:02 37° NNW 13:23:54 10° NE
